This is the latest recevied weather packets stored in our database for station/object HS3UAA-1. If no packets are shown the sender has not sent any weather packets the latest 1 day(s).
| Time | Temp. | Humidity | Pressure | Rain* | Wind** | Luminosity | Snow |
|---|---|---|---|---|---|---|---|
| 1778064717 | 31.11° C | 46% | 994 hPa | - | 0 m/s | 0 W/m² | - |
| 1778064395 | 30.56° C | 48% | 994 hPa | - | 0 m/s | 0 W/m² | - |
| 1778064073 | 30.56° C | 48% | 994 hPa | - | 0 m/s | 0 W/m² | - |
| 1778063751 | 30° C | 49% | 994 hPa | - | 0 m/s | 0 W/m² | - |
| 1778063429 | 28.33° C | 51% | 994 hPa | - | 0 m/s | 0 W/m² | - |
| 1778063107 | 27.78° C | 50% | 994 hPa | - | 0 m/s | 0 W/m² | - |
| 1778062785 | 27.78° C | 50% | 994 hPa | - | 0 m/s | 0 W/m² | - |
| 1778062463 | 27.78° C | 49% | 994 hPa | - | 0 m/s | 0 W/m² | - |
| 1778062141 | 28.33° C | 50% | 994 hPa | - | 0 m/s | 0 W/m² | - |
| 1778061819 | 28.33° C | 50% | 994 hPa | - | 0 m/s | 0 W/m² | - |
| 1778059297 | 27.78° C | 46% | 993 hPa | - | 0 m/s | 0 W/m² | - |
| 1778058975 | 27.78° C | 44% | 993 hPa | - | 0 m/s | 0 W/m² | - |
| 1778058653 | 27.78° C | 48% | 993 hPa | - | 0 m/s | 0 W/m² | - |
| 1778058331 | 28.33° C | 46% | 993 hPa | - | 0 m/s | 0 W/m² | - |
| 1778058008 | 27.78° C | 43% | 993 hPa | - | 0 m/s | 0 W/m² | - |
| 1778057686 | 27.78° C | 41% | 994 hPa | - | 0 m/s | 0 W/m² | - |
| 1778057365 | 28.33° C | 42% | 994 hPa | - | 0 m/s | 0 W/m² | - |
| 1778057042 | 27.78° C | 41% | 993 hPa | - | 0 m/s | 0 W/m² | - |
| 1778056720 | 27.78° C | 39% | 994 hPa | - | 0 m/s | 0 W/m² | - |
| 1778056398 | 28.33° C | 44% | 994 hPa | - | 0 m/s | 0 W/m² | - |
| 1778056076 | 27.78° C | 38% | 994 hPa | - | 0 m/s | 0 W/m² | - |
| 1778055754 | 28.33° C | 38% | 994 hPa | - | 0 m/s | 0 W/m² | - |
| 1778055432 | 28.89° C | 39% | 994 hPa | - | 0 m/s | 0 W/m² | - |
| 1778055110 | 28.89° C | 39% | 993 hPa | - | 0 m/s | 0 W/m² | - |
| 1778054788 | 28.89° C | 40% | 993 hPa | - | 0 m/s | 0 W/m² | - |
* Rain since midnight (hover to see other rain measurements)
** Current wind speed in m/s (hover to see current wind gust speed)